Location: Newark
(37.8333°N, 119.5000°W)
Time: 22:52:16
(UTC+00:00)

Vanguard 2 Rocket - All Passes

Search period start: 21 August 2019 00:00
Search period end: 31 August 2019 00:00
Orbit: 553 x 3327 km, 32.9° (Epoch: 20 August)

Date Brightness Start Highest point End Pass type
(mag) Time Alt. Az. Time Alt. Az. Time Alt. Az.
21 Aug - 08:58:05 10° S 09:06:38 28° SE 09:19:12 10° E visible
21 Aug - 11:08:18 10° SW 11:20:50 61° SSE 11:39:57 10° E visible
21 Aug - 13:21:59 10° W 13:38:18 76° S 13:58:46 10° E daylight
21 Aug - 15:37:53 10° W 15:56:46 63° SSW 16:15:06 10° SE daylight
21 Aug - 17:56:29 10° W 18:13:17 35° SW 18:27:14 10° SSE daylight
22 Aug - 08:01:24 10° SSE 08:07:10 17° SE 08:14:41 10° E visible
22 Aug - 10:09:18 10° SW 10:19:59 50° SSE 10:37:05 10° E visible
22 Aug - 12:21:51 10° WSW 12:36:15 74° S 12:56:37 10° E visible
22 Aug - 14:36:46 10° W 14:54:35 70° SSW 15:14:15 10° ESE daylight
22 Aug - 16:53:55 10° W 17:12:05 45° SW 17:28:14 10° SSE daylight
22 Aug - 19:17:09 10° W 19:26:50 16° SW 19:35:21 10° SSW daylight
23 Aug - 09:10:51 10° SSW 09:19:46 38° SE 09:33:58 10° E visible
23 Aug - 11:22:11 10° WSW 11:34:39 69° SSE 11:54:05 10° E visible
23 Aug - 13:36:09 10° W 13:52:20 74° S 14:12:45 10° ESE daylight
23 Aug - 15:52:08 10° W 16:10:24 54° SSW 16:28:25 10° SE daylight
23 Aug - 18:11:53 10° W 18:26:18 25° SW 18:38:53 10° S daylight
24 Aug - 08:13:08 10° S 08:20:09 25° SE 08:30:30 10° E visible
24 Aug - 10:22:57 10° SW 10:33:36 60° SSE 10:51:16 10° E visible
24 Aug - 12:35:59 10° W 12:50:18 75° S 13:10:41 10° E visible
24 Aug - 14:50:59 10° W 15:08:24 62° SSW 15:27:51 10° SE daylight
24 Aug - 17:08:41 10° W 17:25:18 35° SW 17:40:36 10° SSE daylight
25 Aug - 07:16:59 10° SSE 07:20:59 14° SE 07:25:56 10° ESE visible
25 Aug - 09:24:11 10° SW 09:33:12 48° SSE 09:48:20 10° E visible
25 Aug - 11:36:14 10° WSW 11:48:38 73° S 12:08:10 10° E visible
25 Aug - 13:50:22 10° W 14:06:19 68° SSW 14:26:33 10° ESE daylight
25 Aug - 16:06:36 10° W 16:23:52 44° SSW 16:41:14 10° SSE daylight
25 Aug - 18:28:55 10° W 18:39:17 17° SW 18:48:51 10° SSW daylight
26 Aug - 08:25:56 10° SSW 08:33:22 35° SE 08:45:20 10° E visible
26 Aug - 10:36:52 10° WSW 10:47:28 67° SSE 11:05:23 10° E visible
26 Aug - 12:50:11 10° W 13:04:21 72° S 13:24:37 10° ESE visible
26 Aug - 15:05:18 10° W 15:22:06 53° SSW 15:41:02 10° SE daylight
26 Aug - 17:24:10 10° W 17:38:26 25° SW 17:52:01 10° S daylight
27 Aug - 07:28:27 10° S 07:34:03 22° SE 07:42:05 10° E visible
27 Aug - 09:37:53 10° SW 09:46:52 58° SSE 10:02:31 10° E visible
27 Aug - 11:50:23 10° W 12:02:42 74° S 12:22:12 10° E visible
27 Aug - 14:04:37 10° W 14:20:12 61° SSW 14:40:02 10° SE daylight
27 Aug - 16:21:26 10° W 16:37:13 34° SW 16:53:24 10° SSE daylight
28 Aug - 06:33:24 10° SE 06:35:05 11° SE 06:36:57 10° ESE night (unlit)
28 Aug - 08:39:19 10° SW 08:46:50 45° SSE 08:59:44 10° E visible
28 Aug - 10:50:57 10° WSW 11:01:30 72° S 11:19:28 10° E visible
28 Aug - 13:04:24 10° W 13:18:22 67° SSW 13:38:21 10° ESE daylight
28 Aug - 15:19:49 10° W 15:35:41 43° SSW 15:53:42 10° SSE daylight
28 Aug - 17:41:19 10° WSW 17:51:35 17° SW 18:01:40 10° SSW daylight
29 Aug - 07:41:15 10° SSW 07:47:20 31° SE 07:57:01 10° E visible
29 Aug - 09:51:51 10° WSW 10:00:46 65° SSE 10:16:39 10° E visible
29 Aug - 12:04:36 10° W 12:16:48 71° S 12:36:06 10° ESE visible
29 Aug - 14:18:58 10° W 14:33:59 51° SSW 14:53:06 10° SE daylight
29 Aug - 16:37:02 10° W 16:50:31 25° SW 17:04:33 10° S daylight
30 Aug - 06:43:58 10° S 06:48:15 18° SE 06:54:05 10° E visible
30 Aug - 08:53:04 10° SW 09:00:35 55° SSE 09:13:57 10° E visible
30 Aug - 11:05:08 10° W 11:15:35 72° S 11:33:29 10° ESE visible
30 Aug - 13:18:41 10° W 13:32:19 58° SSW 13:51:45 10° SE daylight
30 Aug - 15:34:45 10° W 15:49:12 33° SW 16:05:37 10° SSE daylight
